Regional Weather Roundup
Issued by NWS

Home | Current Version | Previous Version | Graphics & Text | Print | Product List | Glossary On
Versions: 1 2 3 4 5 6 7 8 9 10 11 12 13 14 15 16 17 18 19 20 21 22 23 24 25 26 27 28 29 30 31 32 33 34 35 36 37 38 39 40 41 42 43 44 45 46 47 48 49 50
000
ASUS43 KBIS 021010
RWRND

NORTH DAKOTA REGIONAL WEATHER ROUNDUP
NATIONAL WEATHER SERVICE BISMARCK ND
500 AM CDT WED SEP 02 2015

NOTE: "FAIR" INDICATES FEW OR NO CLOUDS BELOW 12,000 FEET WITH NO
SIGNIFICANT WEATHER AND/OR OBSTRUCTIONS TO VISIBILITY.


NDZ001>003-009>011-017-021100-
NORTHWEST NORTH DAKOTA

CITY           SKY/WX    TMP DP  RH WIND       PRES   REMARKS
WILLISTON      CLEAR     57  45  64 N5        29.77S
MINOT          CLEAR     62  59  90 E5        29.77R
$$

NDZ018>021-031>035-040>046-021100-
SOUTHWEST NORTH DAKOTA

CITY           SKY/WX    TMP DP  RH WIND       PRES   REMARKS
BISMARCK       CLEAR     63  62  97 E7        29.79S
DICKINSON      CLEAR     57  53  86 S7        29.80S
GARRISON         N/A     58  57  97 CALM      29.79R
HETTINGER ARPT PTCLDY    51  47  86 CALM      29.83F
$$

NDZ004>008-012>016-024-026-027-054-021100-
NORTHEAST NORTH DAKOTA

CITY           SKY/WX    TMP DP  RH WIND       PRES   REMARKS
GRAND FORKS    CLEAR     63  61  93 SE3       29.82R
GRND FRKS AFB  PTCLDY    61  61 100 S1        29.82R
DEVILS LAKE    CLEAR     68  61  77 SE6       29.80S
$$

NDZ022-023-025-028>030-036>039-047>053-021100-
SOUTHEAST NORTH DAKOTA

CITY           SKY/WX    TMP DP  RH WIND       PRES   REMARKS
FARGO          CLEAR     70  67  90 SE9       29.84R
JAMESTOWN      MOCLDY    65  62  90 S8        29.81F
$$




USA.gov is the U.S. government's official web portal to all federal, state and local government web resources and services.